Time,TemperatureF,DewpointF,PressureIn,WindDirection,WindDirectionDegrees,WindSpeedMPH,WindSpeedGustMPH,Humidity,HourlyPrecipIn,Conditions,Clouds,dailyrainin,SoftwareType,DateUTC
2013-11-06 00:01:00,47.5,39.3,30.46,NNE,31,3.5,3.5,73,0.00,CLR,,0.00,WeatherDisplay:10.37,2013-11-06 05:01:00,
2013-11-06 00:03:00,47.5,39.6,30.46,NNE,31,0.0,0.0,74,0.00,CLR,,0.00,WeatherDisplay:10.37,2013-11-06 05:03:00,
2013-11-06 00:08:00,47.5,39.6,30.46,NNE,31,0.0,0.0,74,0.00,CLR,,0.00,WeatherDisplay:10.37,2013-11-06 05:08:00,
2013-11-06 00:13:00,47.4,39.2,30.46,NNE,31,0.0,0.0,73,0.00,CLR,,0.00,WeatherDisplay:10.37,2013-11-06 05:13:00,
2013-11-06 00:18:00,47.3,39.1,30.46,NNE,31,2.3,2.3,73,0.00,CLR,,0.00,WeatherDisplay:10.37,2013-11-06 05:18:00,
2013-11-06 00:23:00,47.3,39.1,30.46,NNE,31,0.0,0.0,73,0.00,CLR,,0.00,WeatherDisplay:10.37,2013-11-06 05:23:00,
2013-11-06 00:28:00,47.2,39.0,30.46,NNE,31,0.0,0.0,73,0.00,CLR,,0.00,WeatherDisplay:10.37,2013-11-06 05:28:00,
2013-11-06 00:33:00,47.2,38.3,30.46,NNE,31,0.0,0.0,71,0.00,CLR,,0.00,WeatherDisplay:10.37,2013-11-06 05:33:00,
2013-11-06 00:38:00,47.2,37.9,30.46,NNE,31,0.0,0.0,70,0.00,CLR,,0.00,WeatherDisplay:10.37,2013-11-06 05:38:00,
2013-11-06 00:43:00,47.2,37.5,30.46,NNE,30,2.3,2.3,69,0.00,CLR,,0.00,WeatherDisplay:10.37,2013-11-06 05:43:00,
2013-11-06 00:48:00,47.3,38.0,30.45,NNE,30,0.0,0.0,70,0.00,CLR,,0.00,WeatherDisplay:10.37,2013-11-06 05:48:00,
2013-11-06 00:53:00,47.4,37.4,30.45,NNE,30,0.0,0.0,68,0.00,CLR,,0.00,WeatherDisplay:10.37,2013-11-06 05:53:00,
2013-11-06 00:58:00,47.5,37.8,30.45,NNE,30,0.0,0.0,69,0.00,CLR,,0.00,WeatherDisplay:10.37,2013-11-06 05:58:00,
2013-11-06 01:03:00,47.6,37.6,30.45,NNE,30,0.0,0.0,68,0.00,CLR,,0.00,WeatherDisplay:10.37,2013-11-06 06:03:00,
2013-11-06 01:08:00,47.6,37.2,30.44,NNE,30,0.0,0.0,67,0.00,CLR,,0.00,WeatherDisplay:10.37,2013-11-06 06:08:00,
2013-11-06 01:13:00,47.6,37.2,30.44,NNE,30,0.0,0.0,67,0.00,CLR,,0.00,WeatherDisplay:10.37,2013-11-06 06:13:00,
2013-11-06 01:18:00,47.6,37.2,30.44,NNE,30,0.0,0.0,67,0.00,CLR,,0.00,WeatherDisplay:10.37,2013-11-06 06:18:00,
2013-11-06 01:23:00,47.6,37.2,30.44,NNE,30,0.0,0.0,67,0.00,CLR,,0.00,WeatherDisplay:10.37,2013-11-06 06:23:00,
2013-11-06 01:28:00,47.6,37.2,30.44,NNE,30,0.0,0.0,67,0.00,CLR,,0.00,WeatherDisplay:10.37,2013-11-06 06:28:00,
2013-11-06 01:33:00,47.6,37.6,30.44,NNE,30,0.0,0.0,68,0.00,CLR,,0.00,WeatherDisplay:10.37,2013-11-06 06:33:00,
2013-11-06 01:38:00,47.7,37.3,30.44,NNE,30,0.0,0.0,67,0.00,CLR,,0.00,WeatherDisplay:10.37,2013-11-06 06:38:00,
2013-11-06 01:43:00,47.8,38.1,30.43,NNE,30,1.2,0.0,69,0.00,CLR,,0.00,WeatherDisplay:10.37,2013-11-06 06:43:00,
2013-11-06 01:48:00,47.9,36.7,30.43,East,79,0.0,0.0,65,0.00,CLR,,0.00,WeatherDisplay:10.37,2013-11-06 06:48:00,
2013-11-06 01:53:00,48.0,36.4,30.43,ENE,65,2.3,2.3,64,0.00,CLR,,0.00,WeatherDisplay:10.37,2013-11-06 06:53:00,
2013-11-06 01:58:00,48.2,36.2,30.43,NE,52,5.8,5.8,63,0.00,CLR,,0.00,WeatherDisplay:10.37,2013-11-06 06:58:00,
2013-11-06 02:03:00,48.4,36.4,30.43,NE,52,0.0,0.0,63,0.00,CLR,,0.00,WeatherDisplay:10.37,2013-11-06 07:03:00,
2013-11-06 02:08:00,48.6,37.4,30.42,NE,53,0.0,0.0,65,0.00,CLR,,0.00,WeatherDisplay:10.37,2013-11-06 07:08:00,
2013-11-06 02:13:00,48.7,36.7,30.42,NE,52,2.3,2.3,63,0.00,CLR,,0.00,WeatherDisplay:10.37,2013-11-06 07:13:00,
2013-11-06 02:18:00,48.9,37.3,30.42,NNE,33,0.0,0.0,64,0.00,CLR,,0.00,WeatherDisplay:10.37,2013-11-06 07:18:00,
2013-11-06 02:23:00,48.9,37.3,30.42,NNE,33,0.0,0.0,64,0.00,CLR,,0.00,WeatherDisplay:10.37,2013-11-06 07:23:00,
2013-11-06 02:28:00,49.0,36.9,30.42,North,351,4.4,4.4,63,0.00,CLR,,0.00,WeatherDisplay:10.37,2013-11-06 07:28:00,
2013-11-06 02:33:00,49.0,36.9,30.42,North,351,0.0,0.0,63,0.00,CLR,,0.00,WeatherDisplay:10.37,2013-11-06 07:33:00,
2013-11-06 02:38:00,49.0,37.3,30.42,North,360,0.0,0.0,64,0.00,CLR,,0.00,WeatherDisplay:10.37,2013-11-06 07:38:00,
2013-11-06 02:43:00,49.0,37.3,30.42,North,360,0.0,0.0,64,0.00,CLR,,0.00,WeatherDisplay:10.37,2013-11-06 07:43:00,
2013-11-06 02:48:00,49.1,37.4,30.42,North,360,0.0,0.0,64,0.00,CLR,,0.00,WeatherDisplay:10.37,2013-11-06 07:48:00,
2013-11-06 02:53:00,49.2,38.7,30.41,NNE,32,0.0,0.0,67,0.00,CLR,,0.00,WeatherDisplay:10.37,2013-11-06 07:53:00,
2013-11-06 02:58:00,49.3,39.2,30.41,NNE,32,0.0,0.0,68,0.00,CLR,,0.00,WeatherDisplay:10.37,2013-11-06 07:58:00,
2013-11-06 03:03:00,49.4,40.0,30.41,NNE,31,0.0,0.0,70,0.00,CLR,,0.00,WeatherDisplay:10.37,2013-11-06 08:03:00,
2013-11-06 03:08:00,49.4,39.7,30.41,NNE,31,0.0,0.0,69,0.00,CLR,,0.00,WeatherDisplay:10.37,2013-11-06 08:08:00,
2013-11-06 03:13:00,49.4,39.7,30.41,NNE,31,0.0,0.0,69,0.00,CLR,,0.00,WeatherDisplay:10.37,2013-11-06 08:13:00,
2013-11-06 03:18:00,49.4,39.7,30.41,NNE,31,0.0,0.0,69,0.00,CLR,,0.00,WeatherDisplay:10.37,2013-11-06 08:18:00,
2013-11-06 03:23:00,49.4,40.7,30.41,NNE,31,0.0,0.0,72,0.00,CLR,,0.00,WeatherDisplay:10.37,2013-11-06 08:23:00,
2013-11-06 03:28:00,49.4,41.1,30.40,NNE,31,0.0,0.0,73,0.00,CLR,,0.00,WeatherDisplay:10.37,2013-11-06 08:28:00,
2013-11-06 03:33:00,49.3,41.4,30.40,NNE,31,0.0,0.0,74,0.00,CLR,,0.00,WeatherDisplay:10.37,2013-11-06 08:33:00,
2013-11-06 03:38:00,49.3,42.1,30.40,NNE,31,0.0,0.0,76,0.00,CLR,,0.00,WeatherDisplay:10.37,2013-11-06 08:38:00,
2013-11-06 03:43:00,49.2,42.0,30.40,NNE,31,1.2,1.2,76,0.00,CLR,,0.00,WeatherDisplay:10.37,2013-11-06 08:43:00,
2013-11-06 03:48:00,49.2,42.0,30.40,NNE,31,0.0,0.0,76,0.00,CLR,,0.00,WeatherDisplay:10.37,2013-11-06 08:48:00,
2013-11-06 03:53:00,49.1,41.9,30.39,NNE,31,0.0,0.0,76,0.00,CLR,,0.00,WeatherDisplay:10.37,2013-11-06 08:53:00,
2013-11-06 03:58:00,49.1,41.9,30.40,NNE,31,0.0,0.0,76,0.00,CLR,,0.00,WeatherDisplay:10.37,2013-11-06 08:58:00,
2013-11-06 04:03:00,49.0,42.8,30.40,ENE,64,1.2,0.0,79,0.00,CLR,,0.00,WeatherDisplay:10.37,2013-11-06 09:03:00,
2013-11-06 04:08:00,49.0,43.4,30.40,ESE,103,0.0,0.1,81,0.00,CLR,,0.00,WeatherDisplay:10.37,2013-11-06 09:08:00,
2013-11-06 04:13:00,49.0,44.1,30.40,NNE,25,0.0,0.0,83,0.00,CLR,,0.00,WeatherDisplay:10.37,2013-11-06 09:13:00,
2013-11-06 04:18:00,49.0,44.7,30.40,NNE,25,0.0,0.0,85,0.00,CLR,,0.00,WeatherDisplay:10.37,2013-11-06 09:18:00,
2013-11-06 04:23:00,48.9,44.6,30.40,NNE,25,1.2,0.0,85,0.00,CLR,,0.00,WeatherDisplay:10.37,2013-11-06 09:23:00,
2013-11-06 04:28:00,48.9,44.6,30.40,NNE,25,0.0,0.0,85,0.00,CLR,,0.00,WeatherDisplay:10.37,2013-11-06 09:28:00,
2013-11-06 04:33:00,48.9,44.6,30.40,NNE,25,0.0,0.0,85,0.00,CLR,,0.00,WeatherDisplay:10.37,2013-11-06 09:33:00,
2013-11-06 04:38:00,48.9,44.9,30.40,NNE,25,0.0,0.0,86,0.00,CLR,,0.00,WeatherDisplay:10.37,2013-11-06 09:38:00,
2013-11-06 04:43:00,49.0,45.6,30.40,NNE,25,0.0,0.0,88,0.00,CLR,,0.00,WeatherDisplay:10.37,2013-11-06 09:43:00,
2013-11-06 04:48:00,49.0,45.3,30.40,NNE,25,0.0,0.0,87,0.00,CLR,,0.00,WeatherDisplay:10.37,2013-11-06 09:48:00,
2013-11-06 04:53:00,49.0,45.3,30.40,NNE,27,0.0,0.0,87,0.00,CLR,,0.00,WeatherDisplay:10.37,2013-11-06 09:53:00,
2013-11-06 04:58:00,49.0,45.9,30.40,NNE,27,0.0,0.0,89,0.00,CLR,,0.00,WeatherDisplay:10.37,2013-11-06 09:58:00,
2013-11-06 05:03:00,49.1,46.3,30.39,NNE,27,0.0,0.0,90,0.00,CLR,,0.00,WeatherDisplay:10.37,2013-11-06 10:03:00,
2013-11-06 05:09:00,49.1,46.3,30.39,NNE,27,0.0,0.0,90,0.00,CLR,,0.00,WeatherDisplay:10.37,2013-11-06 10:09:00,
2013-11-06 05:13:00,49.1,46.3,30.39,NNE,27,0.0,0.0,90,0.00,CLR,,0.00,WeatherDisplay:10.37,2013-11-06 10:13:00,
2013-11-06 05:19:00,49.0,46.2,30.39,NNE,27,0.0,0.0,90,0.00,CLR,,0.00,WeatherDisplay:10.37,2013-11-06 10:19:00,
2013-11-06 05:24:00,49.1,46.6,30.39,NNE,27,0.0,0.0,91,0.00,CLR,,0.00,WeatherDisplay:10.37,2013-11-06 10:24:00,
2013-11-06 05:29:00,49.1,46.6,30.39,NNE,27,0.0,0.0,91,0.00,CLR,,0.00,WeatherDisplay:10.37,2013-11-06 10:29:00,
2013-11-06 05:34:00,49.1,46.9,30.39,NNE,27,0.0,0.0,92,0.00,CLR,,0.00,WeatherDisplay:10.37,2013-11-06 10:34:00,
2013-11-06 05:39:00,49.2,47.3,30.39,NNE,27,0.0,0.0,93,0.00,CLR,,0.00,WeatherDisplay:10.37,2013-11-06 10:39:00,
2013-11-06 05:44:00,49.3,47.4,30.39,NNE,27,0.0,0.0,93,0.00,CLR,,0.00,WeatherDisplay:10.37,2013-11-06 10:44:00,
2013-11-06 05:49:00,49.3,47.4,30.39,NNE,27,0.0,0.0,93,0.00,CLR,,0.00,WeatherDisplay:10.37,2013-11-06 10:49:00,
2013-11-06 05:54:00,49.3,47.6,30.39,NNE,27,0.0,0.0,94,0.00,CLR,,0.00,WeatherDisplay:10.37,2013-11-06 10:54:00,
2013-11-06 05:59:00,49.3,47.6,30.39,NNE,27,0.0,0.0,94,0.00,CLR,,0.00,WeatherDisplay:10.37,2013-11-06 10:59:00,
2013-11-06 06:04:00,49.3,47.6,30.39,NNE,27,0.0,0.0,94,0.00,CLR,,0.00,WeatherDisplay:10.37,2013-11-06 11:04:00,
2013-11-06 06:09:00,49.3,47.6,30.39,NNE,27,1.2,0.0,94,0.00,CLR,,0.00,WeatherDisplay:10.37,2013-11-06 11:09:00,
2013-11-06 06:14:00,49.3,47.6,30.39,NNE,27,0.0,0.0,94,0.00,CLR,,0.00,WeatherDisplay:10.37,2013-11-06 11:14:00,
2013-11-06 06:19:00,49.3,47.6,30.38,NNE,27,3.5,3.5,94,0.00,CLR,,0.00,WeatherDisplay:10.37,2013-11-06 11:19:00,
2013-11-06 06:24:00,49.4,48.0,30.38,NNE,27,1.2,0.0,95,0.00,CLR,,0.00,WeatherDisplay:10.37,2013-11-06 11:24:00,
2013-11-06 06:29:00,49.4,48.0,30.38,NNE,27,1.2,1.2,95,0.00,CLR,,0.00,WeatherDisplay:10.37,2013-11-06 11:29:00,
2013-11-06 06:34:00,49.4,48.0,30.38,NNE,27,1.2,0.0,95,0.00,CLR,,0.00,WeatherDisplay:10.37,2013-11-06 11:34:00,
2013-11-06 06:39:00,49.4,48.0,30.38,NNE,27,0.0,0.0,95,0.00,CLR,,0.00,WeatherDisplay:10.37,2013-11-06 11:39:00,
2013-11-06 06:44:00,49.4,48.0,30.38,NNE,27,0.0,0.0,95,0.00,CLR,,0.00,WeatherDisplay:10.37,2013-11-06 11:44:00,
2013-11-06 06:49:00,49.5,48.1,30.38,ENE,60,1.2,0.0,95,0.00,CLR,,0.00,WeatherDisplay:10.37,2013-11-06 11:49:00,
2013-11-06 06:54:00,49.5,48.1,30.38,ENE,60,0.0,0.0,95,0.00,CLR,,0.00,WeatherDisplay:10.37,2013-11-06 11:54:00,
2013-11-06 06:59:00,49.6,48.2,30.38,ENE,60,1.2,0.0,95,0.00,CLR,,0.00,WeatherDisplay:10.37,2013-11-06 11:59:00,
2013-11-06 07:04:00,49.6,48.2,30.38,ENE,60,0.0,0.0,95,0.00,CLR,,0.00,WeatherDisplay:10.37,2013-11-06 12:04:00,
2013-11-06 07:09:00,49.5,48.1,30.38,ENE,60,0.0,0.0,95,0.00,CLR,,0.00,WeatherDisplay:10.37,2013-11-06 12:09:00,
2013-11-06 07:14:00,49.5,48.1,30.38,ENE,60,0.0,0.0,95,0.00,CLR,,0.00,WeatherDisplay:10.37,2013-11-06 12:14:00,
2013-11-06 07:19:00,49.5,48.1,30.38,ENE,60,2.3,2.3,95,0.00,CLR,,0.00,WeatherDisplay:10.37,2013-11-06 12:19:00,
2013-11-06 07:24:00,49.5,48.1,30.38,ENE,60,0.0,0.0,95,0.00,CLR,,0.00,WeatherDisplay:10.37,2013-11-06 12:24:00,
2013-11-06 07:29:00,49.4,48.0,30.38,ENE,60,0.0,0.1,95,0.00,CLR,,0.00,WeatherDisplay:10.37,2013-11-06 12:29:00,
2013-11-06 07:34:00,49.4,48.0,30.37,ENE,60,1.2,0.0,95,0.00,CLR,,0.00,WeatherDisplay:10.37,2013-11-06 12:34:00,
2013-11-06 07:39:00,49.4,48.0,30.38,NE,46,0.0,0.0,95,0.00,CLR,,0.00,WeatherDisplay:10.37,2013-11-06 12:39:00,
2013-11-06 07:44:00,49.4,48.0,30.37,NE,47,0.0,0.0,95,0.00,CLR,,0.00,WeatherDisplay:10.37,2013-11-06 12:44:00,
2013-11-06 07:49:00,49.6,48.5,30.37,East,79,1.2,0.0,96,0.00,,,0.00,WeatherDisplay:10.37,2013-11-06 12:49:00,
2013-11-06 07:54:00,49.7,48.3,30.37,West,276,2.3,0.0,95,0.00,CLR,,0.00,WeatherDisplay:10.37,2013-11-06 12:54:00,
2013-11-06 07:59:00,49.8,48.4,30.38,South,189,7.6,7.6,95,0.00,CLR,,0.00,WeatherDisplay:10.37,2013-11-06 12:59:00,
2013-11-06 08:04:00,50.0,48.9,30.38,South,172,4.6,4.6,96,0.00,,,0.00,WeatherDisplay:10.37,2013-11-06 13:04:00,
2013-11-06 08:09:00,50.5,49.7,30.37,South,178,12.7,12.7,97,0.00,CLR,,0.00,WeatherDisplay:10.37,2013-11-06 13:09:00,
2013-11-06 08:14:00,51.4,50.9,30.37,SSW,196,8.1,8.1,98,0.00,CLR,,0.00,WeatherDisplay:10.37,2013-11-06 13:14:00,
2013-11-06 08:19:00,51.4,50.3,30.37,NNW,330,0.0,0.0,96,0.00,CLR,,0.00,WeatherDisplay:10.37,2013-11-06 13:19:00,
2013-11-06 08:24:00,51.4,49.4,30.37,SSW,212,4.6,4.6,93,0.00,CLR,,0.00,WeatherDisplay:10.37,2013-11-06 13:24:00,
2013-11-06 08:29:00,51.5,49.8,30.37,WNW,284,3.5,3.5,94,0.00,CLR,,0.00,WeatherDisplay:10.37,2013-11-06 13:29:00,
2013-11-06 08:34:00,51.8,50.4,30.37,SW,214,9.2,9.2,95,0.00,CLR,,0.00,WeatherDisplay:10.37,2013-11-06 13:34:00,
2013-11-06 08:39:00,52.3,51.2,30.37,SSE,158,9.2,9.2,96,0.00,CLR,,0.00,WeatherDisplay:10.37,2013-11-06 13:39:00,
2013-11-06 08:44:00,52.2,49.7,30.37,WSW,247,2.7,2.7,91,0.00,CLR,,0.00,WeatherDisplay:10.37,2013-11-06 13:44:00,
2013-11-06 08:49:00,52.1,49.6,30.37,SSW,197,10.4,10.4,91,0.00,CLR,,0.00,WeatherDisplay:10.37,2013-11-06 13:49:00,
2013-11-06 08:54:00,51.9,49.4,30.37,North,4,4.4,4.4,91,0.00,CLR,,0.00,WeatherDisplay:10.37,2013-11-06 13:54:00,
2013-11-06 08:59:00,51.8,49.5,30.37,North,9,6.9,6.9,92,0.00,CLR,,0.00,WeatherDisplay:10.37,2013-11-06 13:59:00,
2013-11-06 09:04:00,51.8,49.8,30.37,SE,143,8.1,8.1,93,0.00,CLR,,0.00,WeatherDisplay:10.37,2013-11-06 14:04:00,
2013-11-06 09:09:00,52.2,50.5,30.37,North,2,2.3,2.3,94,0.00,CLR,,0.00,WeatherDisplay:10.37,2013-11-06 14:09:00,
2013-11-06 09:14:00,52.3,50.0,30.37,NNE,23,5.8,5.8,92,0.00,CLR,,0.00,WeatherDisplay:10.37,2013-11-06 14:14:00,
2013-11-06 09:19:00,52.4,50.4,30.37,North,360,5.8,5.8,93,0.00,CLR,,0.00,WeatherDisplay:10.37,2013-11-06 14:19:00,
2013-11-06 09:24:00,52.6,50.6,30.36,WSW,254,8.1,8.1,93,0.00,CLR,,0.00,WeatherDisplay:10.37,2013-11-06 14:24:00,
2013-11-06 09:29:00,53.0,51.0,30.36,NE,38,8.1,8.1,93,0.00,CLR,,0.00,WeatherDisplay:10.37,2013-11-06 14:29:00,
2013-11-06 09:34:00,53.4,51.4,30.37,SE,129,6.9,6.9,93,0.00,CLR,,0.00,WeatherDisplay:10.37,2013-11-06 14:34:00,
2013-11-06 09:39:00,53.8,51.5,30.36,ESE,121,4.6,4.6,92,0.00,CLR,,0.00,WeatherDisplay:10.37,2013-11-06 14:39:00,
2013-11-06 09:44:00,54.2,51.9,30.36,South,185,28.8,28.8,92,0.00,CLR,,0.00,WeatherDisplay:10.37,2013-11-06 14:44:00,
2013-11-06 09:49:00,55.2,52.6,30.35,SW,218,10.4,10.4,91,0.00,CLR,,0.00,WeatherDisplay:10.37,2013-11-06 14:49:00,
2013-11-06 09:54:00,56.5,53.0,30.35,SSE,157,16.1,16.1,88,0.00,CLR,,0.00,WeatherDisplay:10.37,2013-11-06 14:54:00,
2013-11-06 09:59:00,57.6,53.4,30.35,SE,140,27.6,27.6,86,0.00,CLR,,0.00,WeatherDisplay:10.37,2013-11-06 14:59:00,
2013-11-06 10:04:00,58.7,53.9,30.35,ESE,112,19.6,19.6,84,0.00,CLR,,0.00,WeatherDisplay:10.37,2013-11-06 15:04:00,
2013-11-06 10:09:00,59.8,54.0,30.34,SSE,147,29.9,29.9,81,0.00,CLR,,0.00,WeatherDisplay:10.37,2013-11-06 15:09:00,
2013-11-06 10:14:00,60.6,54.4,30.35,ESE,111,26.5,26.5,80,0.00,CLR,,0.00,WeatherDisplay:10.37,2013-11-06 15:14:00,
2013-11-06 10:19:00,61.3,54.4,30.34,East,94,19.6,19.6,78,0.00,CLR,,0.00,WeatherDisplay:10.37,2013-11-06 15:19:00,
2013-11-06 10:24:00,61.6,54.3,30.34,SW,214,15.0,15.0,77,0.00,CLR,,0.00,WeatherDisplay:10.37,2013-11-06 15:24:00,
2013-11-06 10:29:00,61.6,54.0,30.35,WSW,237,11.5,11.5,76,0.00,CLR,,0.00,WeatherDisplay:10.37,2013-11-06 15:29:00,
2013-11-06 10:34:00,62.0,54.3,30.34,SSE,166,12.7,12.7,76,0.00,CLR,,0.00,WeatherDisplay:10.37,2013-11-06 15:34:00,
2013-11-06 10:39:00,62.3,54.3,30.35,SSW,204,13.1,13.1,75,0.00,CLR,,0.00,WeatherDisplay:10.37,2013-11-06 15:39:00,
2013-11-06 10:44:00,62.5,54.5,30.34,South,184,13.8,13.8,75,0.00,CLR,,0.00,WeatherDisplay:10.37,2013-11-06 15:44:00,
2013-11-06 10:49:00,62.7,55.0,30.34,West,275,5.8,5.8,76,0.00,CLR,,0.00,WeatherDisplay:10.37,2013-11-06 15:49:00,
2013-11-06 10:54:00,63.0,54.9,30.34,ESE,121,13.8,13.8,75,0.00,CLR,,0.00,WeatherDisplay:10.37,2013-11-06 15:54:00,
2013-11-06 10:59:00,63.2,54.4,30.34,ENE,58,18.4,18.4,73,0.00,CLR,,0.00,WeatherDisplay:10.37,2013-11-06 15:59:00,
2013-11-06 11:04:00,63.4,53.8,30.34,SW,227,16.1,16.1,71,0.00,CLR,,0.00,WeatherDisplay:10.37,2013-11-06 16:04:00,
2013-11-06 11:09:00,63.4,54.2,30.34,SE,139,18.4,18.4,72,0.00,CLR,,0.00,WeatherDisplay:10.37,2013-11-06 16:09:00,
2013-11-06 11:14:00,63.3,54.1,30.34,NNW,346,21.9,21.9,72,0.00,CLR,,0.00,WeatherDisplay:10.37,2013-11-06 16:14:00,
2013-11-06 11:19:00,63.4,54.2,30.34,WSW,254,9.2,9.2,72,0.00,CLR,,0.00,WeatherDisplay:10.37,2013-11-06 16:19:00,
2013-11-06 11:24:00,63.8,54.6,30.33,SSE,148,10.4,10.4,72,0.00,CLR,,0.00,WeatherDisplay:10.37,2013-11-06 16:24:00,
2013-11-06 11:29:00,64.1,54.9,30.33,ESE,117,21.9,21.9,72,0.00,CLR,,0.00,WeatherDisplay:10.37,2013-11-06 16:29:00,
2013-11-06 11:34:00,64.5,54.9,30.33,NW,325,5.8,5.8,71,0.00,CLR,,0.00,WeatherDisplay:10.37,2013-11-06 16:34:00,
2013-11-06 11:39:00,64.9,54.5,30.33,SE,139,13.8,13.8,69,0.00,CLR,,0.00,WeatherDisplay:10.37,2013-11-06 16:39:00,
2013-11-06 11:44:00,65.1,54.7,30.33,SE,133,13.8,13.8,69,0.00,CLR,,0.00,WeatherDisplay:10.37,2013-11-06 16:44:00,
2013-11-06 11:49:00,65.1,55.1,30.32,East,95,18.4,18.4,70,0.00,CLR,,0.00,WeatherDisplay:10.37,2013-11-06 16:49:00,
2013-11-06 11:54:00,65.0,54.2,30.32,SSE,152,25.3,25.3,68,0.00,CLR,,0.00,WeatherDisplay:10.37,2013-11-06 16:54:00,
2013-11-06 11:59:00,65.0,54.2,30.32,South,175,15.0,15.0,68,0.00,CLR,,0.00,WeatherDisplay:10.37,2013-11-06 16:59:00,
2013-11-06 12:04:00,65.1,54.7,30.32,ESE,102,5.8,5.8,69,0.00,CLR,,0.00,WeatherDisplay:10.37,2013-11-06 17:04:00,
2013-11-06 12:09:00,65.1,54.3,30.32,ESE,104,17.4,17.4,68,0.00,CLR,,0.00,WeatherDisplay:10.37,2013-11-06 17:09:00,
2013-11-06 12:14:00,65.1,54.3,30.31,WSW,241,6.9,6.9,68,0.00,CLR,,0.00,WeatherDisplay:10.37,2013-11-06 17:14:00,
2013-11-06 12:19:00,65.2,54.0,30.31,SSW,193,19.6,19.6,67,0.00,CLR,,0.00,WeatherDisplay:10.37,2013-11-06 17:19:00,
2013-11-06 12:24:00,65.5,54.2,30.31,WSW,257,13.8,13.8,67,0.00,CLR,,0.00,WeatherDisplay:10.37,2013-11-06 17:24:00,
2013-11-06 12:29:00,65.5,54.2,30.31,SW,221,10.4,10.4,67,0.00,CLR,,0.00,WeatherDisplay:10.37,2013-11-06 17:29:00,
2013-11-06 12:34:00,65.4,54.6,30.30,NNW,346,8.1,8.1,68,0.00,CLR,,0.00,WeatherDisplay:10.37,2013-11-06 17:34:00,
2013-11-06 12:39:00,65.2,54.0,30.30,ESE,121,20.7,20.7,67,0.00,CLR,,0.00,WeatherDisplay:10.37,2013-11-06 17:39:00,
2013-11-06 12:44:00,65.1,53.9,30.29,NW,308,15.0,15.0,67,0.00,CLR,,0.00,WeatherDisplay:10.37,2013-11-06 17:44:00,
2013-11-06 12:49:00,64.9,53.7,30.29,SW,222,12.7,12.7,67,0.00,CLR,,0.00,WeatherDisplay:10.37,2013-11-06 17:49:00,
2013-11-06 12:54:00,64.8,53.6,30.29,South,175,5.8,5.8,67,0.00,CLR,,0.00,WeatherDisplay:10.37,2013-11-06 17:54:00,
2013-11-06 12:59:00,64.7,53.1,30.28,South,173,15.0,15.0,66,0.00,CLR,,0.00,WeatherDisplay:10.37,2013-11-06 17:59:00,
2013-11-06 13:04:00,64.7,53.5,30.28,NNW,341,3.5,3.5,67,0.00,CLR,,0.00,WeatherDisplay:10.37,2013-11-06 18:04:00,
2013-11-06 13:09:00,64.7,53.9,30.28,NNW,341,5.8,5.8,68,0.00,CLR,,0.00,WeatherDisplay:10.37,2013-11-06 18:09:00,
2013-11-06 13:14:00,64.7,53.9,30.28,SSW,212,8.1,8.1,68,0.00,CLR,,0.00,WeatherDisplay:10.37,2013-11-06 18:14:00,
2013-11-06 13:19:00,64.8,53.6,30.27,ESE,106,13.8,13.8,67,0.00,CLR,,0.00,WeatherDisplay:10.37,2013-11-06 18:19:00,
2013-11-06 13:24:00,65.0,53.8,30.27,SW,235,15.0,15.0,67,0.00,CLR,,0.00,WeatherDisplay:10.37,2013-11-06 18:24:00,
2013-11-06 13:29:00,65.4,53.7,30.27,WSW,240,15.0,15.0,66,0.00,CLR,,0.00,WeatherDisplay:10.37,2013-11-06 18:29:00,
2013-11-06 13:34:00,65.7,54.4,30.27,SSE,156,5.3,5.3,67,0.00,CLR,,0.00,WeatherDisplay:10.37,2013-11-06 18:34:00,
2013-11-06 13:39:00,66.0,53.5,30.27,WSW,254,10.4,10.4,64,0.00,CLR,,0.00,WeatherDisplay:10.37,2013-11-06 18:39:00,
2013-11-06 13:45:00,66.2,53.2,30.27,SE,146,12.7,12.7,63,0.00,CLR,,0.00,WeatherDisplay:10.37,2013-11-06 18:45:00,
2013-11-06 13:50:00,66.2,54.5,30.27,SW,235,8.1,8.1,66,0.00,CLR,,0.00,WeatherDisplay:10.37,2013-11-06 18:50:00,
2013-11-06 13:55:00,66.3,53.8,30.27,South,188,9.2,9.2,64,0.00,CLR,,0.00,WeatherDisplay:10.37,2013-11-06 18:55:00,
2013-11-06 14:00:00,66.3,54.6,30.27,West,260,10.4,10.4,66,0.00,CLR,,0.00,WeatherDisplay:10.37,2013-11-06 19:00:00,
2013-11-06 14:05:00,66.2,53.2,30.27,South,177,12.7,12.7,63,0.00,CLR,,0.00,WeatherDisplay:10.37,2013-11-06 19:05:00,
2013-11-06 14:10:00,66.1,53.6,30.27,SW,223,12.7,12.7,64,0.00,CLR,,0.00,WeatherDisplay:10.37,2013-11-06 19:10:00,
2013-11-06 14:15:00,66.0,53.9,30.27,South,184,10.4,10.4,65,0.00,CLR,,0.00,WeatherDisplay:10.37,2013-11-06 19:15:00,
2013-11-06 14:20:00,66.0,53.0,30.27,WNW,285,2.3,2.3,63,0.00,CLR,,0.00,WeatherDisplay:10.37,2013-11-06 19:20:00,
2013-11-06 14:25:00,66.0,53.9,30.27,SE,126,8.7,8.7,65,0.00,CLR,,0.00,WeatherDisplay:10.37,2013-11-06 19:25:00,
2013-11-06 14:30:00,65.8,52.9,30.26,SE,126,15.0,15.0,63,0.00,CLR,,0.00,WeatherDisplay:10.37,2013-11-06 19:30:00,
2013-11-06 14:35:00,65.6,53.9,30.26,South,191,5.4,5.4,66,0.00,CLR,,0.00,WeatherDisplay:10.37,2013-11-06 19:35:00,
2013-11-06 14:40:00,65.5,53.8,30.26,WSW,243,5.3,5.3,66,0.00,CLR,,0.00,WeatherDisplay:10.37,2013-11-06 19:40:00,
2013-11-06 14:45:00,65.7,53.6,30.25,South,189,1.2,0.0,65,0.00,CLR,,0.00,WeatherDisplay:10.37,2013-11-06 19:45:00,
2013-11-06 14:50:00,65.9,53.8,30.25,West,266,8.1,8.1,65,0.00,CLR,,0.00,WeatherDisplay:10.37,2013-11-06 19:50:00,
2013-11-06 14:55:00,66.1,54.0,30.25,SW,218,16.1,16.1,65,0.00,CLR,,0.00,WeatherDisplay:10.37,2013-11-06 19:55:00,
2013-11-06 15:00:00,66.2,54.5,30.25,SSW,198,1.2,0.0,66,0.00,CLR,,0.00,WeatherDisplay:10.37,2013-11-06 20:00:00,
2013-11-06 15:05:00,66.3,53.8,30.25,South,185,9.2,9.2,64,0.00,CLR,,0.00,WeatherDisplay:10.37,2013-11-06 20:05:00,
2013-11-06 15:10:00,66.2,54.1,30.25,ESE,122,10.4,10.4,65,0.00,CLR,,0.00,WeatherDisplay:10.37,2013-11-06 20:10:00,
2013-11-06 15:15:00,65.9,54.2,30.25,ESE,122,3.5,3.5,66,0.00,CLR,,0.00,WeatherDisplay:10.37,2013-11-06 20:15:00,
2013-11-06 15:20:00,65.5,53.4,30.25,SE,131,10.4,10.4,65,0.00,CLR,,0.00,WeatherDisplay:10.37,2013-11-06 20:20:00,
2013-11-06 15:25:00,65.2,54.0,30.25,East,92,3.5,3.5,67,0.00,CLR,,0.00,WeatherDisplay:10.37,2013-11-06 20:25:00,
2013-11-06 15:30:00,65.1,54.3,30.25,SE,146,0.0,0.0,68,0.00,CLR,,0.00,WeatherDisplay:10.37,2013-11-06 20:30:00,
2013-11-06 15:35:00,65.1,54.7,30.25,WNW,289,2.3,0.0,69,0.00,CLR,,0.00,WeatherDisplay:10.37,2013-11-06 20:35:00,
2013-11-06 15:40:00,65.3,54.1,30.25,SE,136,13.8,13.8,67,0.00,CLR,,0.00,WeatherDisplay:10.37,2013-11-06 20:40:00,
2013-11-06 15:45:00,65.4,54.2,30.25,SSE,152,9.2,9.2,67,0.00,CLR,,0.00,WeatherDisplay:10.37,2013-11-06 20:45:00,
2013-11-06 15:50:00,65.4,54.2,30.24,SSE,149,12.7,12.7,67,0.00,CLR,,0.00,WeatherDisplay:10.37,2013-11-06 20:50:00,
2013-11-06 15:55:00,65.3,53.6,30.24,South,191,10.4,10.4,66,0.00,CLR,,0.00,WeatherDisplay:10.37,2013-11-06 20:55:00,
2013-11-06 16:00:00,65.1,53.9,30.24,SE,146,6.9,6.9,67,0.00,CLR,,0.00,WeatherDisplay:10.37,2013-11-06 21:00:00,
2013-11-06 16:05:00,64.5,53.7,30.24,SSW,195,9.2,9.2,68,0.00,CLR,,0.00,WeatherDisplay:10.37,2013-11-06 21:05:00,
2013-11-06 16:10:00,64.2,53.4,30.24,SE,135,12.7,12.7,68,0.00,CLR,,0.00,WeatherDisplay:10.37,2013-11-06 21:10:00,
2013-11-06 16:15:00,64.0,53.6,30.24,SSE,154,12.7,12.7,69,0.00,CLR,,0.00,WeatherDisplay:10.37,2013-11-06 21:15:00,
2013-11-06 16:20:00,63.8,53.8,30.24,South,179,5.4,5.4,70,0.00,CLR,,0.00,WeatherDisplay:10.37,2013-11-06 21:20:00,
2013-11-06 16:25:00,63.7,53.7,30.24,WSW,247,10.4,10.4,70,0.00,CLR,,0.00,WeatherDisplay:10.37,2013-11-06 21:25:00,
2013-11-06 16:30:00,63.7,53.7,30.24,SSE,152,6.9,6.9,70,0.00,CLR,,0.00,WeatherDisplay:10.37,2013-11-06 21:30:00,
2013-11-06 16:35:00,63.7,53.7,30.24,WSW,247,3.5,3.5,70,0.00,CLR,,0.00,WeatherDisplay:10.37,2013-11-06 21:35:00,
2013-11-06 16:40:00,63.8,53.8,30.24,WSW,250,1.3,1.3,70,0.00,CLR,,0.00,WeatherDisplay:10.37,2013-11-06 21:40:00,
2013-11-06 16:45:00,63.7,53.7,30.24,SSE,149,10.4,10.4,70,0.00,CLR,,0.00,WeatherDisplay:10.37,2013-11-06 21:45:00,
2013-11-06 16:50:00,63.5,53.9,30.24,SE,144,1.2,0.0,71,0.00,CLR,,0.00,WeatherDisplay:10.37,2013-11-06 21:50:00,
2013-11-06 16:55:00,63.1,53.5,30.24,South,181,3.5,3.5,71,0.00,CLR,,0.00,WeatherDisplay:10.37,2013-11-06 21:55:00,
2013-11-06 17:00:00,62.7,53.5,30.23,South,191,5.8,5.8,72,0.00,CLR,,0.00,WeatherDisplay:10.37,2013-11-06 22:00:00,
2013-11-06 17:05:00,62.3,53.5,30.23,SSE,166,6.9,6.9,73,0.00,CLR,,0.00,WeatherDisplay:10.37,2013-11-06 22:05:00,
2013-11-06 17:10:00,62.0,53.6,30.24,SSE,168,5.8,5.8,74,0.00,CLR,,0.00,WeatherDisplay:10.37,2013-11-06 22:10:00,
2013-11-06 17:15:00,61.6,53.2,30.23,SSE,168,10.4,10.4,74,0.00,CLR,,0.00,WeatherDisplay:10.37,2013-11-06 22:15:00,
2013-11-06 17:20:00,61.6,53.6,30.24,South,185,9.2,9.2,75,0.00,CLR,,0.00,WeatherDisplay:10.37,2013-11-06 22:20:00,
2013-11-06 17:25:00,61.4,53.8,30.23,South,171,3.3,4.1,76,0.00,CLR,,0.00,WeatherDisplay:10.37,2013-11-06 22:25:00,
2013-11-06 17:30:00,61.2,53.6,30.23,SSE,155,10.9,10.9,76,0.00,CLR,,0.00,WeatherDisplay:10.37,2013-11-06 22:30:00,
2013-11-06 17:35:00,61.2,53.6,30.23,SE,137,8.1,8.1,76,0.00,CLR,,0.00,WeatherDisplay:10.37,2013-11-06 22:35:00,
2013-11-06 17:40:00,61.1,53.5,30.23,South,179,8.1,8.1,76,0.00,CLR,,0.00,WeatherDisplay:10.37,2013-11-06 22:40:00,
2013-11-06 17:45:00,61.0,53.7,30.23,SE,127,13.8,13.8,77,0.00,CLR,,0.00,WeatherDisplay:10.37,2013-11-06 22:45:00,
2013-11-06 17:50:00,60.9,53.6,30.23,SSW,201,10.4,10.4,77,0.00,CLR,,0.00,WeatherDisplay:10.37,2013-11-06 22:50:00,
2013-11-06 17:55:00,60.8,53.5,30.23,SSE,168,17.3,17.3,77,0.00,CLR,,0.00,WeatherDisplay:10.37,2013-11-06 22:55:00,
2013-11-06 18:00:00,60.7,53.4,30.23,SE,146,8.1,9.0,77,0.00,CLR,,0.00,WeatherDisplay:10.37,2013-11-06 23:00:00,
2013-11-06 18:05:00,60.6,53.3,30.23,South,191,13.8,13.8,77,0.00,CLR,,0.00,WeatherDisplay:10.37,2013-11-06 23:05:00,
2013-11-06 18:10:00,60.5,53.6,30.23,SSW,206,15.0,15.0,78,0.00,CLR,,0.00,WeatherDisplay:10.37,2013-11-06 23:10:00,
2013-11-06 18:15:00,60.4,53.5,30.23,SE,146,8.7,8.7,78,0.00,CLR,,0.00,WeatherDisplay:10.37,2013-11-06 23:15:00,
2013-11-06 18:20:00,60.3,53.4,30.23,SSW,204,6.9,6.9,78,0.00,CLR,,0.00,WeatherDisplay:10.37,2013-11-06 23:20:00,
2013-11-06 18:25:00,60.3,53.4,30.23,South,189,6.9,6.9,78,0.00,CLR,,0.00,WeatherDisplay:10.37,2013-11-06 23:25:00,
2013-11-06 18:30:00,60.2,53.7,30.24,South,184,6.5,6.5,79,0.00,CLR,,0.00,WeatherDisplay:10.37,2013-11-06 23:30:00,
2013-11-06 18:35:00,60.2,53.3,30.24,South,189,5.8,5.8,78,0.00,CLR,,0.00,WeatherDisplay:10.37,2013-11-06 23:35:00,
2013-11-06 18:40:00,60.2,53.3,30.23,SSW,196,4.6,4.6,78,0.00,CLR,,0.00,WeatherDisplay:10.37,2013-11-06 23:40:00,
2013-11-06 18:45:00,60.2,53.7,30.23,SE,146,3.5,3.5,79,0.00,CLR,,0.00,WeatherDisplay:10.37,2013-11-06 23:45:00,
2013-11-06 18:50:00,60.1,53.6,30.23,South,189,10.4,10.4,79,0.00,CLR,,0.00,WeatherDisplay:10.37,2013-11-06 23:50:00,
2013-11-06 18:55:00,60.1,53.6,30.23,SSE,166,5.0,16.0,79,0.00,CLR,CLR,0.00,WeatherDisplay:10.37,2013-11-06 23:55:00,
2013-11-06 19:00:00,60.1,53.6,30.24,SSE,155,8.0,14.0,79,0.00,CLR,CLR,0.00,WeatherDisplay:10.37,2013-11-07 00:00:00,
2013-11-06 19:05:00,60.0,53.5,30.24,South,170,1.0,15.0,79,0.00,CLR,CLR,0.00,WeatherDisplay:10.37,2013-11-07 00:05:00,
2013-11-06 19:10:00,59.9,53.4,30.24,South,173,0.0,9.0,79,0.00,CLR,CLR,0.00,WeatherDisplay:10.37,2013-11-07 00:10:00,
2013-11-06 19:15:00,59.9,53.4,30.23,South,172,6.0,16.0,79,0.00,CLR,CLR,0.00,WeatherDisplay:10.37,2013-11-07 00:15:00,
2013-11-06 19:20:00,59.8,53.3,30.23,South,173,14.0,23.0,79,0.00,CLR,CLR,0.00,WeatherDisplay:10.37,2013-11-07 00:20:00,
2013-11-06 19:25:00,59.8,53.3,30.23,SSE,163,8.0,19.0,79,0.00,CLR,CLR,0.00,WeatherDisplay:10.37,2013-11-07 00:25:00,
2013-11-06 19:30:00,59.7,53.2,30.23,SSE,157,12.0,13.0,79,0.00,CLR,,0.00,WeatherDisplay:10.37,2013-11-07 00:30:00,
2013-11-06 19:35:00,59.7,53.5,30.23,SE,128,14.2,14.2,80,0.00,CLR,,0.00,WeatherDisplay:10.37,2013-11-07 00:35:00,
2013-11-06 19:40:00,59.6,53.4,30.22,ESE,121,13.8,13.8,80,0.00,CLR,,0.00,WeatherDisplay:10.37,2013-11-07 00:40:00,
2013-11-06 19:45:00,59.5,53.3,30.22,SE,143,12.7,12.7,80,0.00,CLR,,0.00,WeatherDisplay:10.37,2013-11-07 00:45:00,
2013-11-06 19:50:00,59.3,53.1,30.22,SE,126,16.1,16.1,80,0.00,CLR,,0.00,WeatherDisplay:10.37,2013-11-07 00:50:00,
2013-11-06 19:55:00,59.2,53.4,30.22,SE,139,9.0,19.0,81,0.00,CLR,CLR,0.00,WeatherDisplay:10.37,2013-11-07 00:55:00,
2013-11-06 20:00:00,59.2,53.4,30.22,ESE,110,13.8,13.8,81,0.00,CLR,,0.00,WeatherDisplay:10.37,2013-11-07 01:00:00,
2013-11-06 20:05:00,59.0,53.2,30.22,ESE,123,14.2,14.2,81,0.00,CLR,,0.00,WeatherDisplay:10.37,2013-11-07 01:05:00,
2013-11-06 20:10:00,59.0,53.2,30.22,SSE,155,5.0,15.0,81,0.00,CLR,CLR,0.00,WeatherDisplay:10.37,2013-11-07 01:10:00,
2013-11-06 20:15:00,58.9,53.1,30.22,SSW,205,2.0,15.0,81,0.00,CLR,CLR,0.00,WeatherDisplay:10.37,2013-11-07 01:15:00,
2013-11-06 20:20:00,58.9,53.1,30.21,WSW,258,2.0,6.0,81,0.00,CLR,CLR,0.00,WeatherDisplay:10.37,2013-11-07 01:20:00,
2013-11-06 20:25:00,58.8,53.0,30.21,NE,52,0.0,0.0,81,0.00,CLR,,0.00,WeatherDisplay:10.37,2013-11-07 01:25:00,
2013-11-06 20:30:00,58.7,52.9,30.21,NE,52,0.0,0.0,81,0.00,CLR,,0.00,WeatherDisplay:10.37,2013-11-07 01:30:00,
2013-11-06 20:35:00,58.6,52.8,30.21,NE,52,0.0,0.0,81,0.00,CLR,,0.00,WeatherDisplay:10.37,2013-11-07 01:35:00,
2013-11-06 20:40:00,58.5,53.0,30.21,NE,52,0.0,0.0,82,0.00,CLR,,0.00,WeatherDisplay:10.37,2013-11-07 01:40:00,
2013-11-06 20:45:00,58.4,52.9,30.20,NE,52,1.2,0.0,82,0.00,CLR,,0.00,WeatherDisplay:10.37,2013-11-07 01:45:00,
2013-11-06 20:50:00,58.3,52.8,30.20,SE,141,4.4,0.0,82,0.00,CLR,,0.00,WeatherDisplay:10.37,2013-11-07 01:50:00,
2013-11-06 20:55:00,58.3,52.8,30.20,South,187,0.0,7.0,82,0.00,CLR,CLR,0.00,WeatherDisplay:10.37,2013-11-07 01:55:00,
2013-11-06 21:00:00,58.4,53.3,30.20,SW,220,0.0,5.0,83,0.00,CLR,CLR,0.00,WeatherDisplay:10.37,2013-11-07 02:00:00,
2013-11-06 21:05:00,58.4,52.9,30.20,NNE,25,0.0,6.0,82,0.00,CLR,CLR,0.00,WeatherDisplay:10.37,2013-11-07 02:05:00,
2013-11-06 21:10:00,58.4,52.9,30.20,NE,49,0.0,0.0,82,0.00,CLR,CLR,0.00,WeatherDisplay:10.37,2013-11-07 02:10:00,
2013-11-06 21:15:00,58.4,53.2,30.20,NE,52,1.0,3.0,83,0.00,CLR,CLR,0.00,WeatherDisplay:10.37,2013-11-07 02:15:00,
2013-11-06 21:20:00,58.3,53.2,30.20,NNE,23,0.0,6.0,83,0.00,CLR,CLR,0.00,WeatherDisplay:10.37,2013-11-07 02:20:00,
2013-11-06 21:25:00,58.3,53.2,30.20,East,91,4.4,4.4,83,0.00,CLR,,0.00,WeatherDisplay:10.37,2013-11-07 02:25:00,
2013-11-06 21:30:00,58.4,53.3,30.20,ESE,107,0.0,0.0,83,0.00,CLR,,0.00,WeatherDisplay:10.37,2013-11-07 02:30:00,
2013-11-06 21:35:00,58.4,53.3,30.20,ESE,107,0.0,0.0,83,0.00,CLR,,0.00,WeatherDisplay:10.37,2013-11-07 02:35:00,
2013-11-06 21:40:00,58.4,53.3,30.20,North,3,4.4,4.4,83,0.00,CLR,,0.00,WeatherDisplay:10.37,2013-11-07 02:40:00,
2013-11-06 21:45:00,58.3,53.2,30.20,ENE,57,0.0,8.0,83,0.00,CLR,CLR,0.00,WeatherDisplay:10.37,2013-11-07 02:45:00,
2013-11-06 21:50:00,58.3,53.2,30.20,NE,51,0.0,0.0,83,0.00,CLR,CLR,0.00,WeatherDisplay:10.37,2013-11-07 02:50:00,
2013-11-06 21:55:00,58.3,53.2,30.19,NNE,29,0.0,1.0,83,0.00,CLR,CLR,0.00,WeatherDisplay:10.37,2013-11-07 02:55:00,
2013-11-06 22:00:00,58.2,53.1,30.19,NNE,29,0.0,0.0,83,0.00,CLR,,0.00,WeatherDisplay:10.37,2013-11-07 03:00:00,
2013-11-06 22:05:00,58.0,52.9,30.19,NW,312,6.9,6.9,83,0.00,CLR,,0.00,WeatherDisplay:10.37,2013-11-07 03:05:00,
2013-11-06 22:10:00,57.9,53.1,30.19,South,187,9.2,9.2,84,0.00,CLR,,0.00,WeatherDisplay:10.37,2013-11-07 03:10:00,
2013-11-06 22:15:00,58.0,53.2,30.18,SSE,167,15.0,15.0,84,0.00,CLR,,0.00,WeatherDisplay:10.37,2013-11-07 03:15:00,
2013-11-06 22:20:00,58.1,53.3,30.18,South,191,10.4,10.4,84,0.00,CLR,,0.00,WeatherDisplay:10.37,2013-11-07 03:20:00,
2013-11-06 22:25:00,58.1,53.3,30.18,NNW,329,6.9,6.9,84,0.00,CLR,,0.00,WeatherDisplay:10.37,2013-11-07 03:25:00,
2013-11-06 22:30:00,58.2,53.4,30.18,SSE,166,10.4,10.4,84,0.00,CLR,,0.00,WeatherDisplay:10.37,2013-11-07 03:30:00,
2013-11-06 22:35:00,58.2,53.1,30.18,SSW,209,0.0,0.0,83,0.00,CLR,,0.00,WeatherDisplay:10.37,2013-11-07 03:35:00,
2013-11-06 22:40:00,58.2,53.1,30.18,NNW,342,8.1,8.1,83,0.00,CLR,,0.00,WeatherDisplay:10.37,2013-11-07 03:40:00,
2013-11-06 22:45:00,57.9,53.1,30.18,NNE,29,0.0,0.0,84,0.00,CLR,,0.00,WeatherDisplay:10.37,2013-11-07 03:45:00,
2013-11-06 22:50:00,57.7,52.9,30.18,NE,41,0.0,0.0,84,0.00,CLR,,0.00,WeatherDisplay:10.37,2013-11-07 03:50:00,
2013-11-06 22:55:00,57.5,53.0,30.19,NE,49,0.0,0.0,85,0.00,CLR,,0.00,WeatherDisplay:10.37,2013-11-07 03:55:00,
2013-11-06 23:00:00,57.4,52.9,30.19,NE,48,0.0,0.0,85,0.00,CLR,,0.00,WeatherDisplay:10.37,2013-11-07 04:00:00,
2013-11-06 23:05:00,57.4,52.9,30.19,NE,48,0.0,0.0,85,0.00,CLR,,0.00,WeatherDisplay:10.37,2013-11-07 04:05:00,
2013-11-06 23:10:00,57.3,52.8,30.19,NE,48,0.0,0.0,85,0.00,CLR,,0.00,WeatherDisplay:10.37,2013-11-07 04:10:00,
2013-11-06 23:15:00,57.3,52.8,30.19,NE,48,0.0,0.0,85,0.00,CLR,,0.00,WeatherDisplay:10.37,2013-11-07 04:15:00,
2013-11-06 23:20:00,57.3,52.8,30.19,NE,48,0.0,0.0,85,0.00,CLR,,0.00,WeatherDisplay:10.37,2013-11-07 04:20:00,
2013-11-06 23:25:00,57.2,53.0,30.19,NE,48,0.0,0.0,86,0.00,CLR,,0.00,WeatherDisplay:10.37,2013-11-07 04:25:00,
2013-11-06 23:30:00,57.1,53.0,30.18,NE,48,0.0,0.0,86,0.00,CLR,,0.00,WeatherDisplay:10.37,2013-11-07 04:30:00,
2013-11-06 23:35:00,57.1,53.0,30.18,NE,48,0.0,0.0,86,0.00,CLR,,0.00,WeatherDisplay:10.37,2013-11-07 04:35:00,
2013-11-06 23:40:00,57.0,52.9,30.18,NE,48,0.0,0.0,86,0.00,CLR,,0.00,WeatherDisplay:10.37,2013-11-07 04:40:00,
2013-11-06 23:45:00,57.0,52.9,30.18,NE,48,0.0,0.0,86,0.00,CLR,,0.00,WeatherDisplay:10.37,2013-11-07 04:45:00,
2013-11-06 23:50:00,56.9,52.8,30.18,NE,48,0.0,0.0,86,0.00,CLR,,0.00,WeatherDisplay:10.37,2013-11-07 04:50:00,
2013-11-06 23:55:00,56.8,52.7,30.18,NE,48,0.0,0.0,86,0.00,CLR,,0.00,WeatherDisplay:10.37,2013-11-07 04:55:00,